• In Germany
  • List of Countries
  • For 7 days
  • Water Temperature
  • Satellite Maps
  • Weather Map
  • Weather Widgets
  • user-avatar
    Login

    Hourly Weather Noicattaro

    Today, 16 January, Tuesday

    Time Temperature Precipitation Wind Pressure Humidity
    00:00 +9°C° 0 mm 1 mps 756 mmHg 83%
    01:00 +9°C° 0 mm 1 mps 756 mmHg 84%
    02:00 +8°C° 0 mm 2 mps 756 mmHg 83%
    03:00 +8°C° 0 mm 2 mps 756 mmHg 82%
    04:00 +7°C° 0 mm 3 mps 755 mmHg 82%
    05:00 +7°C° 0 mm 3 mps 755 mmHg 81%
    06:00 +6°C° 0 mm 4 mps 755 mmHg 81%
    07:00 +6°C° 0 mm 4 mps 754 mmHg 81%
    08:00 +8°C° 0 mm 5 mps 754 mmHg 76%
    09:00 +9°C° 0 mm 5 mps 754 mmHg 71%
    10:00 +11°C° 0 mm 6 mps 754 mmHg 66%
    11:00 +13°C° 0 mm 6 mps 753 mmHg 62%
    12:00 +14°C° 0 mm 7 mps 753 mmHg 58%
    13:00 +15°C° 0 mm 7 mps 753 mmHg 54%
    14:00 +14°C° 0 mm 7 mps 752 mmHg 55%
    15:00 +14°C° 0 mm 6 mps 752 mmHg 57%
    16:00 +13°C° 0 mm 6 mps 751 mmHg 59%
    17:00 +13°C° 0 mm 6 mps 751 mmHg 62%
    18:00 +11°C° 0 mm 6 mps 751 mmHg 65%
    19:00 +10°C° 0 mm 6 mps 750 mmHg 69%
    20:00 +10°C° 0 mm 6 mps 750 mmHg 70%
    21:00 +10°C° 0 mm 6 mps 750 mmHg 72%
    22:00 +10°C° 0 mm 6 mps 750 mmHg 73%
    23:00 +10°C° 0 mm 6 mps 750 mmHg 75%

    Tomorrow, 17 January, Wednesday

    Time Temperature Precipitation Wind Pressure Humidity
    00:00 +10°C° 0 mm 6 mps 749 mmHg 76%
    01:00 +10°C° 0 mm 5 mps 749 mmHg 77%
    02:00 +10°C° 0 mm 6 mps 748 mmHg 77%
    03:00 +10°C° 0 mm 6 mps 748 mmHg 77%
    04:00 +10°C° 0 mm 6 mps 747 mmHg 77%
    05:00 +10°C° 0 mm 7 mps 747 mmHg 76%
    06:00 +10°C° 0 mm 7 mps 746 mmHg 76%
    07:00 +11°C° 0 mm 7 mps 746 mmHg 75%
    08:00 +12°C° 0 mm 8 mps 746 mmHg 70%
    09:00 +13°C° 0 mm 9 mps 745 mmHg 65%
    10:00 +14°C° 0 mm 10 mps 745 mmHg 60%
    11:00 +16°C° 0 mm 10 mps 745 mmHg 56%
    12:00 +17°C° 0 mm 11 mps 744 mmHg 52%
    13:00 +17°C° 0 mm 11 mps 743 mmHg 48%
    14:00 +16°C° 0.2 mm 11 mps 743 mmHg 49%
    15:00 +14°C° 0.2 mm 11 mps 743 mmHg 50%
    16:00 +13°C° 0.2 mm 11 mps 743 mmHg 51%
    17:00 +12°C° 0.4 mm 11 mps 744 mmHg 52%
    18:00 +10°C° 0.4 mm 12 mps 745 mmHg 53%
    19:00 +9°C° 0.4 mm 12 mps 745 mmHg 54%
    20:00 +8°C° 0.1 mm 13 mps 746 mmHg 50%
    21:00 +8°C° 0.1 mm 13 mps 747 mmHg 45%
    22:00 +6°C° 0.1 mm 14 mps 748 mmHg 41%
    23:00 +7°C° 0.1 mm 13 mps 749 mmHg 43%

    Day after tomorrow, 18 January, Thursday

    Time Temperature Precipitation Wind Pressure Humidity
    00:00 +5°C° 0.1 mm 12 mps 750 mmHg 45%
    01:00 +6°C° 0.1 mm 11 mps 751 mmHg 47%
    02:00 +6°C° 0 mm 10 mps 752 mmHg 46%
    03:00 +5°C° 0 mm 9 mps 753 mmHg 45%
    04:00 +5°C° 0 mm 8 mps 753 mmHg 44%
    05:00 +5°C° 0 mm 8 mps 754 mmHg 43%
    06:00 +5°C° 0 mm 8 mps 755 mmHg 41%
    07:00 +4°C° 0 mm 8 mps 755 mmHg 40%
    08:00 +5°C° 0 mm 7 mps 756 mmHg 35%
    09:00 +8°C° 0 mm 7 mps 756 mmHg 31%
    10:00 +9°C° 0 mm 7 mps 757 mmHg 27%
    11:00 +10°C° 0 mm 6 mps 757 mmHg 25%
    12:00 +12°C° 0 mm 5 mps 757 mmHg 22%
    13:00 +12°C° 0 mm 4 mps 756 mmHg 19%
    14:00 +12°C° 0 mm 4 mps 756 mmHg 23%
    15:00 +12°C° 0 mm 4 mps 756 mmHg 27%
    16:00 +11°C° 0 mm 4 mps 756 mmHg 31%
    17:00 +11°C° 0 mm 4 mps 756 mmHg 34%
    18:00 +9°C° 0 mm 5 mps 756 mmHg 38%
    19:00 +8°C° 0 mm 6 mps 756 mmHg 41%
    20:00 +8°C° 0 mm 6 mps 755 mmHg 44%
    21:00 +7°C° 0 mm 6 mps 755 mmHg 46%
    22:00 +7°C° 0 mm 5 mps 755 mmHg 48%
    23:00 +7°C° 0 mm 5 mps 755 mmHg 52%

    19 January, Friday

    Time Temperature Precipitation Wind Pressure Humidity
    00:00 +7°C° 0 mm 5 mps 754 mmHg 56%
    01:00 +6°C° 0 mm 5 mps 754 mmHg 60%
    02:00 +6°C° 0 mm 5 mps 754 mmHg 64%
    03:00 +6°C° 0 mm 5 mps 753 mmHg 68%
    04:00 +6°C° 0 mm 5 mps 753 mmHg 72%
    05:00 +6°C° 0 mm 5 mps 753 mmHg 74%
    06:00 +6°C° 0 mm 5 mps 753 mmHg 76%
    07:00 +6°C° 0 mm 5 mps 752 mmHg 78%
    08:00 +8°C° 0 mm 6 mps 752 mmHg 74%
    09:00 +9°C° 0 mm 6 mps 752 mmHg 70%
    10:00 +11°C° 0 mm 6 mps 752 mmHg 65%
    11:00 +13°C° 0 mm 6 mps 752 mmHg 62%
    12:00 +14°C° 0 mm 6 mps 751 mmHg 59%
    13:00 +15°C° 0 mm 6 mps 751 mmHg 56%
    14:00 +14°C° 0 mm 6 mps 750 mmHg 58%
    15:00 +14°C° 0 mm 5 mps 750 mmHg 61%
    16:00 +14°C° 0 mm 5 mps 750 mmHg 63%
    17:00 +13°C° 0 mm 6 mps 750 mmHg 66%
    18:00 +11°C° 0 mm 6 mps 750 mmHg 69%
    19:00 +10°C° 0 mm 6 mps 749 mmHg 72%
    20:00 +10°C° 0 mm 7 mps 749 mmHg 72%
    21:00 +10°C° 0 mm 7 mps 749 mmHg 71%
    22:00 +10°C° 0 mm 7 mps 748 mmHg 71%
    23:00 +10°C° 0 mm 7 mps 748 mmHg 71%

    20 January, Saturday

    Time Temperature Precipitation Wind Pressure Humidity
    00:00 +10°C° 0 mm 7 mps 748 mmHg 71%
    01:00 +10°C° 0 mm 7 mps 747 mmHg 70%
    02:00 +10°C° 0 mm 7 mps 747 mmHg 71%
    03:00 +10°C° 0 mm 7 mps 746 mmHg 72%
    04:00 +10°C° 0 mm 7 mps 746 mmHg 73%
    05:00 +10°C° 0.1 mm 7 mps 745 mmHg 73%
    06:00 +10°C° 0.1 mm 7 mps 745 mmHg 73%
    07:00 +10°C° 0.1 mm 7 mps 745 mmHg 74%
    08:00 +11°C° 0.1 mm 7 mps 745 mmHg 72%
    09:00 +11°C° 0.1 mm 7 mps 745 mmHg 69%
    10:00 +12°C° 0.1 mm 7 mps 745 mmHg 67%
    11:00 +12°C° 0.2 mm 7 mps 744 mmHg 65%
    12:00 +14°C° 0.2 mm 7 mps 744 mmHg 62%
    13:00 +14°C° 0.2 mm 7 mps 743 mmHg 59%
    14:00 +13°C° 0.2 mm 6 mps 743 mmHg 56%
    15:00 +13°C° 0.2 mm 6 mps 743 mmHg 54%
    16:00 +11°C° 0.2 mm 6 mps 743 mmHg 51%
    17:00 +10°C° 0 mm 6 mps 743 mmHg 51%
    18:00 +9°C° 0 mm 6 mps 743 mmHg 51%
    19:00 +9°C° 0 mm 6 mps 743 mmHg 51%
    20:00 +8°C° 0 mm 5 mps 743 mmHg 52%
    21:00 +8°C° 0 mm 5 mps 743 mmHg 52%
    22:00 +8°C° 0 mm 5 mps 743 mmHg 53%
    23:00 +7°C° 0.1 mm 5 mps 742 mmHg 57%

    21 January, Sunday

    Time Temperature Precipitation Wind Pressure Humidity
    00:00 +7°C° 0.1 mm 5 mps 742 mmHg 60%
    01:00 +7°C° 0.1 mm 5 mps 741 mmHg 64%
    02:00 +6°C° 0.2 mm 5 mps 741 mmHg 67%
    03:00 +5°C° 0.2 mm 6 mps 741 mmHg 71%
    04:00 +5°C° 0.2 mm 6 mps 740 mmHg 74%
    05:00 +5°C° 0.1 mm 7 mps 740 mmHg 73%
    06:00 +5°C° 0.1 mm 7 mps 740 mmHg 73%
    07:00 +5°C° 0.1 mm 8 mps 740 mmHg 72%
    08:00 +5°C° 0.1 mm 9 mps 740 mmHg 70%
    09:00 +6°C° 0.1 mm 10 mps 740 mmHg 68%
    10:00 +6°C° 0.1 mm 11 mps 741 mmHg 66%
    11:00 +6°C° 0.2 mm 11 mps 741 mmHg 62%
    12:00 +7°C° 0.2 mm 11 mps 741 mmHg 57%
    13:00 +7°C° 0.2 mm 12 mps 741 mmHg 53%
    14:00 +7°C° 0 mm 12 mps 741 mmHg 53%
    15:00 +5°C° 0 mm 12 mps 742 mmHg 53%
    16:00 +5°C° 0 mm 12 mps 742 mmHg 53%
    17:00 +4°C° 0.1 mm 12 mps 743 mmHg 54%
    18:00 +4°C° 0.1 mm 12 mps 743 mmHg 55%
    19:00 +3°C° 0.1 mm 12 mps 744 mmHg 56%
    20:00 +3°C° 0.1 mm 12 mps 744 mmHg 56%
    21:00 +3°C° 0.1 mm 13 mps 745 mmHg 56%
    22:00 +1°C° 0.1 mm 13 mps 745 mmHg 56%
    23:00 +1°C° 0.1 mm 13 mps 746 mmHg 56%
    Show more